• Processing (Info)

  • MPEC 2010-G101: 2010 FH92

    The following Minor Planet Electronic Circular may be linked-to from your own Web pages, but must not otherwise be redistributed electronically.

    A form allowing access to any MPEC is at the bottom of this page.


    Read MPEC 2010-G100 Read MPEC 2010-G102


    M.P.E.C. 2010-G101                               Issued 2010 Apr. 13, 12:59 UT
    
         The Minor Planet Electronic Circulars contain information on unusual
             minor planets and routine data on comets.  They are published
       on behalf of Commission 20 of the International Astronomical Union by the
              Minor Planet Center, Smithsonian Astrophysical Observatory,
                              Cambridge, MA 02138, U.S.A.
    
                 Prepared using the Tamkin Foundation Computer Network
    
                                  MPC@CFA.HARVARD.EDU
           URL https://www.minorplanetcenter.org/iau/mpc.html  ISSN 1523-6714
    
                                       2010 FH92
    
    Observations:
         K10F92H* S2010 03 17.23924 17 35 25.59 -64 04 29.2          18   R EG101C51
         K10F92H  s2010 03 17.23924 1 - 1239.4385 - 2933.7900 - 6137.1588   EG101C51
         K10F92H  S2010 03 17.37154 17 35 29.14 -64 04 45.6                 EG101C51
         K10F92H  s2010 03 17.37154 1 - 1233.4005 - 2945.5029 - 6132.6515   EG101C51
         K10F92H  S2010 03 17.63627 17 35 35.99 -64 05 16.8                 EG101C51
         K10F92H  s2010 03 17.63627 1 - 1216.3049 - 2898.4581 - 6158.4312   EG101C51
         K10F92H  S2010 03 17.70236 17 35 37.56 -64 05 25.1                 EG101C51
         K10F92H  s2010 03 17.70236 1 - 1216.0450 - 2941.9372 - 6137.8060   EG101C51
         K10F92H  S2010 03 17.83467 17 35 40.98 -64 05 40.4                 EG101C51
         K10F92H  s2010 03 17.83467 1 - 1209.8978 - 2952.9954 - 6133.7802   EG101C51
         K10F92H  S2010 03 17.90088 17 35 42.66 -64 05 47.0                 EG101C51
         K10F92H  s2010 03 17.90088 1 - 1204.2317 - 2921.9180 - 6149.7036   EG101C51
         K10F92H  S2010 03 18.23171 17 35 51.02 -64 06 25.8                 EG101C51
         K10F92H  s2010 03 18.23171 1 - 1187.1355 - 2918.4723 - 6154.8370   EG101C51
         K10F92H  C2010 04 10.52031 17 38 24.78 -64 47 07.6          19.4 R EG101467
         K10F92H  C2010 04 10.53135 17 38 24.64 -64 47 08.8          19.5 R EG101467
         K10F92H  C2010 04 10.54301 17 38 24.47 -64 47 09.7          19.6 R EG101467
         K10F92H  C2010 04 11.47628 17 38 12.30 -64 48 22.8          19.2 R EG101467
         K10F92H  C2010 04 11.48727 17 38 12.14 -64 48 23.7          19.4 R EG101467
         K10F92H  C2010 04 11.50250 17 38 11.94 -64 48 25.1          19.7 R EG101467
    
    Observer details:
    467 Auckland Observatory.  Observers G. W. Christie, T. Natusch.  Measurer
        G. W. Christie.  0.40-m f/10 Schmidt-Cassegrain + CCD.
    C51 WISE.  Measurers A. Mainzer, E. Wright, J. Bauer, T. Grav, J. Dailey, J.
        Masiero, R. Cutri, R. McMillan, R. Walker.
        (http://wise.ssl.berkeley.edu/mission_sci.html)
    
    Orbital elements:
    2010 FH92
    Epoch 2010 Mar. 25.0 TT = JDT 2455280.5                 MPC
    M 359.14391              (2000.0)            P               Q
    n   0.00871098     Peri.  323.48159     -0.13861176     +0.46793077
    a  23.3932974      Node   279.61688     -0.55985543     -0.76401682
    e   0.7546217      Incl.   62.28454     -0.81691412     +0.44420613
    P 113              H   11.8           G   0.15
    From 13 observations 2010 Mar. 17-Apr. 11.
    
    Ephemeris:
    2010 FH92                a,e,i = 23.39, 0.75, 62                 q = 5.7402
    Date    TT    R. A. (2000) Decl.     Delta      r     Elong.  Phase     V
    2010 04 14    17 37.53   -64 51.5    5.342    5.761   109.9     9.4    19.9
    2010 04 24    17 33.14   -64 59.3    5.230    5.756   117.0     9.0    19.8
    2010 05 04    17 26.21   -64 57.7    5.130    5.752   123.8     8.4    19.7
    2010 05 14    17 17.16   -64 43.8    5.047    5.748   130.0     7.7    19.7
    2010 05 24    17 06.69   -64 14.7    4.983    5.745   135.1     7.1    19.6
    2010 06 03    16 55.71   -63 28.9    4.942    5.743   138.7     6.7    19.6
    2010 06 13    16 45.11   -62 26.5    4.924    5.741   140.2     6.5    19.6
    2010 06 23    16 35.71   -61 08.8    4.932    5.740   139.2     6.6    19.6
    2010 07 03    16 28.10   -59 39.0    4.965    5.740   136.0     7.1    19.6
    2010 07 13    16 22.56   -58 00.7    5.023    5.741   130.9     7.7    19.6
    2010 07 23    16 19.21   -56 17.9    5.103    5.742   124.6     8.4    19.7
    2010 08 02    16 17.96   -54 34.2    5.204    5.744   117.5     9.0    19.8
    2010 08 12    16 18.64   -52 52.4    5.321    5.746   109.9     9.5    19.9
    2010 08 22    16 21.05   -51 14.9    5.452    5.749   102.1     9.9    19.9
    2010 09 01    16 24.97   -49 43.0    5.593    5.753    94.0    10.1    20.0
    2010 09 11    16 30.17   -48 17.5    5.740    5.758    86.0    10.0    20.0
    2010 09 21    16 36.48   -46 58.6    5.888    5.763    77.9     9.8    20.1
    2010 10 01    16 43.69   -45 46.3    6.035    5.769    69.9     9.4    20.1
    2010 10 11    16 51.66   -44 40.0    6.177    5.775    62.0     8.8    20.2
    
    Timothy B. Spahr             (C) Copyright 2010 MPC           M.P.E.C. 2010-G101
    

    Read MPEC 2010-G100 Read MPEC 2010-G102


    MPEC number:

    Enter an MPEC number in one of the following forms:

    • 1997-B01 (the full form)
    • J97B01 (the packed version of the full form)
    • B01 (the abbreviated form)